KE7YUP Weather Reports


Display with metric or nautical units.
time (UTC)temp
F
wind
direction
speed
MPH
gust
MPH
rain 1hr
in
rain 24hr
in
rain mn
in
humidity
%
barometer
mb
20260506223816 59 355 13.0 20.0 0.00 0.08 0.08 27 1021.8
20260506222816 59 11 9.0 13.0 0.00 0.08 0.08 27 1021.6
20260506221816 58 330 8.0 15.0 0.00 0.08 0.08 27 1021.7
20260506220816 58 319 9.0 20.0 0.00 0.08 0.08 27 1021.7
20260506215816 58 325 13.0 20.0 0.00 0.08 0.08 28 1022.4
20260506214836 58 300 15.0 27.0 0.00 0.08 0.08 28 1022.0
20260506213816 57 345 7.0 18.0 0.00 0.08 0.08 29 1022.1
20260506212816 57 320 14.0 19.0 0.00 0.08 0.08 29 1022.0
20260506211816 57 319 17.0 24.0 0.00 0.08 0.08 28 1022.0
20260506210816 57 327 17.0 29.0 0.00 0.08 0.08 28 1022.2
20260506205816 56 350 13.0 25.0 0.00 0.08 0.08 28 1022.4
20260506204816 56 345 10.0 19.0 0.00 0.08 0.08 28 1022.4
20260506203816 57 318 13.0 24.0 0.00 0.08 0.08 29 1022.5
20260506202816 56 308 12.0 18.0 0.00 0.08 0.08 29 1023.0
20260506201816 56 4 11.0 16.0 0.00 0.08 0.08 27 1022.9
20260506200816 56 47 10.0 18.0 0.00 0.08 0.08 30 1022.8
20260506195816 55 3 14.0 26.0 0.00 0.08 0.08 28 1022.5
20260506194816 55 350 14.0 26.0 0.00 0.08 0.08 27 1022.5
20260506193816 55 294 13.0 20.0 0.00 0.08 0.08 29 1022.4
20260506192816 54 2 15.0 26.0 0.00 0.08 0.08 28 1022.4
20260506191816 54 351 11.0 19.0 0.00 0.08 0.08 27 1022.4
20260506190815 53 25 10.0 14.0 0.00 0.08 0.08 27 1021.9
20260506185816 54 15 15.0 26.0 0.00 0.08 0.08 25 1022.7
20260506184816 53 18 5.0 17.0 0.00 0.08 0.08 26 1022.4
20260506183815 52 13 7.0 23.0 0.00 0.08 0.08 25 1022.2
20260506182816 52 347 10.0 21.0 0.00 0.08 0.08 24 1022.1
20260506181816 52 8 16.0 26.0 0.00 0.08 0.08 24 1022.2
20260506180816 52 4 10.0 25.0 0.00 0.08 0.08 25 1022.0
20260506175836 52 7 18.0 27.0 0.00 0.08 0.08 25 1021.9
20260506174815 52 351 9.0 20.0 0.00 0.08 0.08 29 1021.7
20260506173816 52 37 13.0 29.0 0.00 0.08 0.08 28 1021.3
20260506172836 52 2 11.0 27.0 0.00 0.08 0.08 27 1020.9
20260506171815 51 357 12.0 27.0 0.00 0.08 0.08 27 1020.7
20260506170815 51 353 15.0 31.0 0.00 0.08 0.08 26 1020.4
20260506165836 51 12 13.0 24.0 0.00 0.08 0.08 26 1020.4
20260506164816 51 17 12.0 21.0 0.00 0.08 0.08 28 1020.1
20260506163815 51 7 17.0 28.0 0.00 0.08 0.08 28 1020.0
20260506162816 51 359 11.0 26.0 0.00 0.08 0.08 26 1020.0
20260506161815 50 27 11.0 28.0 0.00 0.08 0.08 33 1019.9
20260506160836 50 27 10.0 22.0 0.00 0.08 0.08 34 1020.0
20260506155815 50 1 7.0 21.0 0.00 0.08 0.08 34 1020.0
20260506154815 50 329 13.0 25.0 0.00 0.08 0.08 33 1019.8
20260506153815 50 355 14.0 21.0 0.00 0.08 0.08 36 1019.8
20260506152815 50 9 4.0 15.0 0.00 0.08 0.08 37 1020.0
20260506151815 50 5 8.0 12.0 0.00 0.08 0.08 45 1020.0
20260506150815 50 38 7.0 17.0 0.00 0.08 0.08 43 1019.9
20260506145815 50 6 7.0 15.0 0.00 0.08 0.08 41 1020.1
20260506144815 50 334 9.0 14.0 0.00 0.08 0.08 42 1019.6
20260506143815 49 22 9.0 16.0 0.00 0.08 0.08 42 1019.6
20260506142815 49 322 3.0 5.0 0.00 0.08 0.08 44 1020.0
20260506141815 49 7 7.0 18.0 0.00 0.08 0.08 44 1019.8
20260506140815 49 15 5.0 9.0 0.00 0.08 0.08 46 1019.8
20260506135835 48 314 3.0 8.0 0.00 0.08 0.08 49 1019.6
20260506134835 48 29 3.0 10.0 0.00 0.08 0.08 50 1019.5
20260506133815 48 311 7.0 18.0 0.00 0.08 0.08 48 1019.4
20260506132815 47 18 3.0 8.0 0.00 0.08 0.08 52 1019.2
20260506131815 47 13 4.0 8.0 0.00 0.08 0.08 52 1019.1
20260506130815 46 332 7.0 11.0 0.00 0.08 0.08 52 1018.8
20260506125817 46 333 7.0 12.0 0.00 0.08 0.08 54 1018.6
20260506124815 45 331 11.0 14.0 0.00 0.08 0.08 55 1018.2
20260506123817 45 319 6.0 12.0 0.00 0.08 0.08 56 1017.9
20260506122835 45 321 10.0 15.0 0.00 0.08 0.08 58 1017.8
20260506121817 45 333 9.0 17.0 0.00 0.08 0.08 60 1017.4
20260506120817 44 344 10.0 14.0 0.00 0.08 0.08 61 1017.0
20260506115817 44 320 8.0 18.0 0.00 0.08 0.08 62 1016.9
20260506114818 44 331 7.0 10.0 0.00 0.08 0.08 63 1016.9
20260506113817 44 2 4.0 8.0 0.00 0.08 0.08 63 1016.8
20260506112817 44 281 5.0 9.0 0.00 0.08 0.08 64 1016.3
20260506111817 44 342 3.0 10.0 0.00 0.08 0.08 65 1016.2
20260506110817 44 316 8.0 12.0 0.00 0.08 0.08 66 1015.9
20260506105817 43 273 7.0 16.0 0.00 0.08 0.08 69 1015.2
20260506104817 43 301 6.0 9.0 0.00 0.08 0.08 70 1015.2
20260506103817 43 335 13.0 21.0 0.00 0.08 0.08 73 1015.1
20260506102837 43 287 8.0 13.0 0.00 0.08 0.08 80 1015.4
20260506101817 43 125 3.0 6.0 0.00 0.08 0.08 84 1014.9
20260506100817 42 246 1.0 5.0 0.02 0.08 0.08 86 1014.7
20260506095816 42 267 9.0 13.0 0.06 0.08 0.08 86 1014.6
20260506094837 43 300 7.0 10.0 0.08 0.08 0.08 87 1014.8
20260506093816 43 242 11.0 16.0 0.08 0.08 0.08 84 1014.6
20260506092816 44 39 8.0 12.0 0.08 0.08 0.08 85 1014.4
20260506091816 44 41 12.0 16.0 0.08 0.08 0.08 84 1014.4
20260506090837 43 6 12.0 27.0 0.06 0.06 0.06 82 1014.7
20260506085817 46 326 14.0 17.0 0.02 0.02 0.02 83 1014.7
20260506084817 46 301 9.0 11.0 0.00 0.00 0.00 82 1014.0
20260506083816 46 247 6.0 10.0 0.00 0.00 0.00 82 1013.4
20260506082816 47 241 4.0 9.0 0.00 0.00 0.00 81 1013.3
20260506081816 47 241 9.0 13.0 0.00 0.00 0.00 80 1013.4
20260506080816 47 257 6.0 8.0 0.00 0.00 0.00 78 1013.3
20260506072816 48 291 4.0 8.0 0.00 0.00 0.00 76 1013.5
20260506071816 48 279 8.0 12.0 0.00 0.00 0.00 75 1013.7
20260506070816 48 285 10.0 15.0 0.00 0.00 0.00 76 1013.7
20260506061816 49 271 11.0 13.0 0.00 0.00 0.00 69 1013.1
20260506060816 51 282 6.0 10.0 0.00 0.00 0.00 65 1013.2
20260506050856 47 328 0.0 1.0 0.00 0.00 0.00 69 1011.2
20260506044815 49 328 3.0 4.0 0.00 0.00 0.00 66 1011.5
20260506043815 48 333 4.0 6.0 0.00 0.00 0.00 69 1011.2
20260506042815 47 333 2.0 3.0 0.00 0.00 0.00 70 1011.2
20260506041815 47 333 2.0 3.0 0.00 0.00 0.00 68 1010.9
20260506040815 48 331 3.0 4.0 0.00 0.00 0.00 67 1011.1
20260506035815 49 331 3.0 4.0 0.00 0.00 0.00 66 1011.4
20260506034815 48 316 6.0 10.0 0.00 0.00 0.00 67 1011.4
20260506033815 49 333 2.0 4.0 0.00 0.00 0.00 66 1011.0
20260506032815 49 329 3.0 4.0 0.00 0.00 0.00 65 1011.0
20260506031835 50 117 3.0 4.0 0.00 0.00 0.00 64 1011.0
20260506030837 50 117 0.0 2.0 0.00 0.00 0.00 63 1011.1
20260506025817 51 117 1.0 2.0 0.00 0.00 0.00 62 1011.3
20260506024817 51 117 0.0 1.0 0.00 0.00 0.00 61 1011.3
20260506023817 51 117 2.0 3.0 0.00 0.00 0.00 59 1011.0
20260506022817 53 117 1.0 2.0 0.00 0.00 0.00 57 1011.7
20260506021817 54 117 3.0 4.0 0.00 0.00 0.00 56 1011.5
20260506020817 54 112 3.0 4.0 0.00 0.00 0.00 55 1011.4
20260506015837 54 110 3.0 6.0 0.00 0.00 0.00 54 1011.7
20260506014817 54 132 2.0 4.0 0.00 0.00 0.00 54 1011.7
20260506013817 55 112 4.0 7.0 0.00 0.00 0.00 53 1011.8
20260506012815 55 112 2.0 7.0 0.00 0.00 0.00 52 1011.6
20260506011816 55 100 4.0 7.0 0.00 0.00 0.00 52 1011.6
20260506010817 56 112 3.0 5.0 0.00 0.00 0.00 52 1011.8
20260506005816 56 100 5.0 9.0 0.00 0.00 0.00 52 1012.0
20260506004816 56 113 6.0 8.0 0.00 0.00 0.00 52 1011.8
20260506003858 56 83 2.0 6.0 0.00 0.00 0.00 53 1011.8
20260506002816 56 90 4.0 8.0 0.00 0.00 0.00 53 1011.7
20260506001817 56 86 4.0 7.0 0.00 0.00 0.00 52 1011.9
20260506000816 56 132 3.0 6.0 0.00 0.00 0.00 53 1011.6
20260505235816 55 113 6.0 10.0 0.00 0.00 0.00 53 1011.4
20260505234817 55 116 4.0 7.0 0.00 0.00 0.00 53 1011.5
20260505233816 55 134 2.0 6.0 0.00 0.00 0.00 56 1011.6
20260505232816 54 90 7.0 8.0 0.00 0.00 0.00 57 1011.6
20260505231816 53 88 7.0 9.0 0.00 0.00 0.00 58 1011.4
20260505230816 53 69 5.0 7.0 0.00 0.00 0.00 58 1011.5
20260505225817 53 83 3.0 7.0 0.00 0.00 0.00 58 1011.6
20260505224816 52 87 4.0 7.0 0.00 0.00 0.00 59 1011.6